Orbital Elements at Epoch 2459200.5 (2020-Dec-17.0) TDB
Reference: JPL 25 (heliocentric ecliptic J2000)
Element | Value | Uncertainty (1-sigma) | Units |
e | .1028283141962814 | 4.3861e-08 | |
a | 2.21037887488238 | 7.676e-09 | au |
q | 1.983089341443152 | 9.9985e-08 | au |
i | 4.663461573701405 | 4.102e-06 | deg |
node | 211.4221344978913 | 4.256e-05 | deg |
peri | 294.7230922996441 | 4.6661e-05 | deg |
M | 289.8882033636073 | 1.8462e-05 | deg |
tp | 2459434.269099657979 (2021-Aug-07.76909966) | 6.172e-05 | TDB |
period | 1200.324052645791 3.29 | 6.2526e-06 1.712e-08 | d yr |
n | .2999190087097539 | 1.5623e-09 | deg/d |
Q | 2.437668408321608 | 8.4653e-09 | au |
|
| | Orbit Determination Parameters
Additional Information
|